Darstellungsparameter: Aktuell verwendete Einstellungen:
Skalierung der Graphiken ... ?
xyx+y,   Skalierungsfaktor:      Skalierung: Modus: x, Faktor: 1
Darstellungszeitraum ... ?
Vom - - bis: - -   Zeitraum: 28.08.2010 - 29.08.2010
Min/Max/Avg-Anzeige ... ?
Zeige MMA aktuell
Zeige MMA Monat
Zeige MMA alles
Zeige --A aktuell
Zeige --A Monat
Zeige --A alles
Keine MMA-Anzeige
MMA:
Average (ber die Originaldaten)
MMA-Basis: 28.08.2010 - 29.08.2010
Quicknavigation für Darstellung... ?
Tage:      1T, 2T, 3T, 5T -1T -2T -3T -5T +1T +2T +3T +5T
Wochen: 1W, 2W, 3W -1W -2W -3W +1W +2W +3W
Monate: 1M, 3M, 6M -1M -3M -6M +1M +3M +6M
Jahre:    1J, 3J, 5J, 10J -1J -3J -5J -10J +1J +3J +5J +10J
Nutze für die Darstellung ... ?
Originaldaten oder Mittelwerte auf ...
Stundenbasis Tagesbasis Wochenbasis
Monatsbasis Jahresbasis      Datenbasis: Original-Daten
Darstellen als:
Statistik (Auto) Statistik J:M      Darstellung:
Zur Graphik,    zurück zur Übersicht aller Sensoren.
 
Tabellarische Datenbersicht: ?
 
Sensor: Nr:Datum:Temp:Abs-Feuchte:Windchill:Wind:
Aussen-T/F 1 28-08-2010 00:07:28 14.1 C 9.1 g/m*3 14.1 C 0 km/h
2 28-08-2010 00:19:28 13.9 C 9.11 g/m*3 13.9 C 0 km/h
3 28-08-2010 00:31:28 14 C 9.05 g/m*3 14 C 0 km/h
4 28-08-2010 00:43:28 13.7 C 9.35 g/m*3 13.7 C 0 km/h
5 28-08-2010 00:55:29 13.2 C 9.42 g/m*3 13.2 C 0 km/h
6 28-08-2010 01:07:29 13.2 C 9.64 g/m*3 13.2 C 0 km/h
7 28-08-2010 01:19:29 13.1 C 9.81 g/m*3 13.1 C 0 km/h
8 28-08-2010 01:31:29 13 C 9.87 g/m*3 13 C 0 km/h
9 28-08-2010 01:43:29 13.1 C 10.04 g/m*3 13.1 C 0 km/h
10 28-08-2010 01:55:29 13.1 C 10.04 g/m*3 13.1 C 0 km/h
11 28-08-2010 02:07:29 13.2 C 9.99 g/m*3 13.2 C 0 km/h
12 28-08-2010 02:19:29 13.2 C 9.99 g/m*3 13.2 C 0 km/h
13 28-08-2010 02:31:29 13.1 C 9.81 g/m*3 13.1 C 0 km/h
14 28-08-2010 02:43:29 13.1 C 9.7 g/m*3 13.1 C 0 km/h
15 28-08-2010 02:55:29 13.1 C 9.59 g/m*3 13.1 C 0 km/h
16 28-08-2010 03:07:29 13.1 C 9.59 g/m*3 13.1 C 0 km/h
17 28-08-2010 03:19:29 13.1 C 9.59 g/m*3 13.1 C 0 km/h
18 28-08-2010 03:31:29 13.1 C 9.47 g/m*3 13.1 C 0 km/h
19 28-08-2010 03:43:29 13.1 C 9.59 g/m*3 13.1 C 0 km/h
20 28-08-2010 03:55:29 13.1 C 9.59 g/m*3 13.1 C 0 km/h
21 28-08-2010 04:07:29 12.9 C 9.47 g/m*3 12.9 C 0 km/h
22 28-08-2010 04:19:30 12.9 C 9.47 g/m*3 12.9 C 0 km/h
23 28-08-2010 04:31:30 12.5 C 9.24 g/m*3 12.5 C 0 km/h
24 28-08-2010 04:43:30 12.3 C 9.23 g/m*3 12.3 C 0 km/h
25 28-08-2010 04:55:30 12.1 C 9.12 g/m*3 12.1 C 0 km/h
Sensor: Nr:Datum:Temp:Abs-Feuchte:Windchill:Wind:
Aussen-T/F 26 28-08-2010 05:07:30 12.2 C 9.28 g/m*3 12.2 C 0 km/h
27 28-08-2010 05:19:30 12.3 C 9.34 g/m*3 12.3 C 0 km/h
28 28-08-2010 05:31:30 12.1 C 9.01 g/m*3 12.1 C 0 km/h
29 28-08-2010 05:43:30 11.9 C 9 g/m*3 11.9 C 0 km/h
30 28-08-2010 05:55:30 12.1 C 9.12 g/m*3 12.1 C 0 km/h
31 28-08-2010 06:07:30 11.7 C 8.89 g/m*3 11.7 C 0 km/h
32 28-08-2010 06:19:30 11.6 C 8.83 g/m*3 11.6 C 0 km/h
33 28-08-2010 06:31:30 11.7 C 8.79 g/m*3 11.7 C 0 km/h
34 28-08-2010 06:43:30 11.5 C 8.68 g/m*3 11.5 C 0 km/h
35 28-08-2010 06:55:02 11.4 C 8.62 g/m*3 11.4 C 0 km/h
36 28-08-2010 07:07:02 11.3 C 8.67 g/m*3 11.3 C 0 km/h
37 28-08-2010 07:19:02 11.3 C 8.77 g/m*3 11.3 C 0 km/h
38 28-08-2010 07:31:01 11.6 C 8.94 g/m*3 11.6 C 0 km/h
39 28-08-2010 07:43:01 12 C 8.95 g/m*3 12 C 0 km/h
40 28-08-2010 07:55:02 12.4 C 9.07 g/m*3 12.4 C 0 km/h
41 28-08-2010 08:07:01 12.6 C 9.07 g/m*3 12.6 C 0 km/h
42 28-08-2010 08:19:02 12.8 C 8.96 g/m*3 12.8 C 0 km/h
43 28-08-2010 08:31:01 13 C 8.85 g/m*3 13 C 0 km/h
44 28-08-2010 08:43:01 13.4 C 8.95 g/m*3 13.4 C 0 km/h
45 28-08-2010 08:55:02 13.6 C 8.83 g/m*3 13.6 C 0 km/h
46 28-08-2010 09:07:02 14.3 C 8.97 g/m*3 14.3 C 0 km/h
47 28-08-2010 09:19:01 14.2 C 8.55 g/m*3 14.2 C 0 km/h
48 28-08-2010 09:31:02 14.1 C 8.62 g/m*3 14.1 C 0 km/h
49 28-08-2010 09:43:02 14.1 C 8.37 g/m*3 14.1 C 0 km/h
50 28-08-2010 09:55:02 14.4 C 8.41 g/m*3 14.4 C 0 km/h
Sensor: Nr:Datum:Temp:Abs-Feuchte:Windchill:Wind:
Aussen-T/F 51 28-08-2010 10:07:02 14.6 C 8.38 g/m*3 14.6 C 0 km/h
52 28-08-2010 10:19:02 14.6 C 8.38 g/m*3 14.6 C 0 km/h
53 28-08-2010 10:31:02 15.1 C 8.39 g/m*3 15.1 C 0 km/h
54 28-08-2010 10:43:02 15.6 C 8.51 g/m*3 15.6 C 0 km/h
55 28-08-2010 10:55:02 15.8 C 8.08 g/m*3 15.8 C 0 km/h
56 28-08-2010 11:07:03 15.8 C 8.21 g/m*3 15.8 C 0 km/h
57 28-08-2010 11:19:02 16.4 C 7.96 g/m*3 16.4 C 0 km/h
58 28-08-2010 11:31:03 16.9 C 7.77 g/m*3 16.9 C 0 km/h
59 28-08-2010 11:43:03 16.7 C 7.25 g/m*3 16.7 C 0 km/h
60 28-08-2010 11:55:02 16.4 C 7.82 g/m*3 16.4 C 0 km/h
61 28-08-2010 12:07:02 17 C 7.67 g/m*3 17 C 0 km/h
62 28-08-2010 12:19:02 18 C 7.22 g/m*3 18 C 0 km/h
63 28-08-2010 12:31:02 13.7 C 8.05 g/m*3 13.7 C 0 km/h
64 28-08-2010 12:43:02 13.7 C 9.35 g/m*3 13.7 C 0 km/h
65 28-08-2010 12:55:02 14.7 C 10.58 g/m*3 14.7 C 0 km/h
66 28-08-2010 13:07:02 15.7 C 10.84 g/m*3 15.7 C 0 km/h
67 28-08-2010 13:19:03 15.8 C 10.23 g/m*3 15.8 C 0 km/h
68 28-08-2010 13:31:02 15.5 C 10.31 g/m*3 15.5 C 0 km/h
69 28-08-2010 13:43:02 17.2 C 11.57 g/m*3 17.2 C 0 km/h
70 28-08-2010 13:55:03 17 C 10.13 g/m*3 17 C 0 km/h
71 28-08-2010 14:07:02 15.8 C 8.88 g/m*3 15.8 C 0 km/h
72 28-08-2010 14:19:03 16.8 C 8.01 g/m*3 16.8 C 0 km/h
73 28-08-2010 14:31:02 15.9 C 6.91 g/m*3 15.9 C 0 km/h
74 28-08-2010 14:43:02 14.9 C 7.01 g/m*3 14.9 C 0 km/h
75 28-08-2010 14:55:02 14.6 C 7.63 g/m*3 14.6 C 0 km/h
Sensor: Nr:Datum:Temp:Abs-Feuchte:Windchill:Wind:
Aussen-T/F 76 28-08-2010 15:07:02 14.7 C 7.68 g/m*3 14.7 C 0 km/h
77 28-08-2010 15:19:02 15.8 C 7.94 g/m*3 15.8 C 0 km/h
78 28-08-2010 15:31:03 17.6 C 7.65 g/m*3 17.6 C 0 km/h
79 28-08-2010 15:43:03 17.9 C 6.72 g/m*3 17.9 C 0 km/h
80 28-08-2010 15:55:02 17.6 C 7.05 g/m*3 17.6 C 0 km/h
81 28-08-2010 16:07:01 17 C 6.8 g/m*3 17 C 0 km/h
82 28-08-2010 16:19:02 14.9 C 7.65 g/m*3 14.9 C 0 km/h
83 28-08-2010 16:31:02 13.9 C 8.27 g/m*3 13.9 C 0 km/h
84 28-08-2010 16:43:02 14.5 C 8.95 g/m*3 14.5 C 0 km/h
85 28-08-2010 16:55:01 15.2 C 8.44 g/m*3 15.2 C 0 km/h
86 28-08-2010 17:07:02 15.9 C 9.21 g/m*3 15.9 C 0 km/h
87 28-08-2010 17:19:01 16 C 8.72 g/m*3 16 C 0 km/h
88 28-08-2010 17:31:02 15.7 C 8.3 g/m*3 15.7 C 0 km/h
89 28-08-2010 17:43:02 15.2 C 8.05 g/m*3 15.2 C 0 km/h
90 28-08-2010 17:55:01 15.2 C 9.09 g/m*3 15.2 C 0 km/h
91 28-08-2010 18:07:02 16.2 C 8.27 g/m*3 16.2 C 0 km/h
92 28-08-2010 18:19:01 17 C 6.95 g/m*3 17 C 0 km/h
93 28-08-2010 18:31:02 18.1 C 7.26 g/m*3 18.1 C 0 km/h
94 28-08-2010 18:43:02 18.3 C 7.04 g/m*3 18.3 C 0 km/h
95 28-08-2010 18:55:01 18.2 C 7.46 g/m*3 18.2 C 0 km/h
96 28-08-2010 19:07:02 16.8 C 7.86 g/m*3 16.8 C 0 km/h
97 28-08-2010 19:19:02 16.1 C 7.95 g/m*3 16.1 C 0 km/h
98 28-08-2010 19:31:02 15 C 8.59 g/m*3 15 C 0 km/h
99 28-08-2010 19:43:02 14.2 C 8.79 g/m*3 14.2 C 0 km/h
100 28-08-2010 19:55:01 14.2 C 8.3 g/m*3 14.2 C 0 km/h
Sensor: Nr:Datum:Temp:Abs-Feuchte:Windchill:Wind:
Aussen-T/F 101 28-08-2010 20:07:02 13.4 C 8.6 g/m*3 13.4 C 0 km/h
102 28-08-2010 20:19:02 13 C 8.85 g/m*3 13 C 0 km/h
103 28-08-2010 20:31:01 13.1 C 9.13 g/m*3 13.1 C 0 km/h
104 28-08-2010 20:43:01 13.1 C 9.24 g/m*3 13.1 C 0 km/h
105 28-08-2010 20:55:02 12.9 C 9.35 g/m*3 12.9 C 0 km/h
106 28-08-2010 21:07:01 12.8 C 9.3 g/m*3 12.8 C 0 km/h
107 28-08-2010 21:19:02 12.7 C 9.24 g/m*3 12.7 C 0 km/h
108 28-08-2010 21:31:01 12.4 C 9.07 g/m*3 12.4 C 0 km/h
109 28-08-2010 21:43:01 12.2 C 8.96 g/m*3 12.2 C 0 km/h
110 28-08-2010 21:55:02 12.2 C 9.06 g/m*3 12.2 C 0 km/h
111 28-08-2010 22:08:02 12.3 C 9.12 g/m*3 12.3 C 0 km/h
112 28-08-2010 22:20:02 12.3 C 9.01 g/m*3 12.3 C 0 km/h
113 28-08-2010 22:32:03 12.2 C 8.85 g/m*3 12.2 C 0 km/h
114 28-08-2010 22:44:03 12.1 C 8.79 g/m*3 12.1 C 0 km/h
115 28-08-2010 22:56:03 12.3 C 9.01 g/m*3 12.3 C 0 km/h
116 28-08-2010 23:08:03 12.6 C 8.96 g/m*3 12.6 C 0 km/h
117 28-08-2010 23:20:03 12.7 C 8.79 g/m*3 12.7 C 0 km/h
118 28-08-2010 23:32:03 12.4 C 8.74 g/m*3 12.4 C 0 km/h
119 28-08-2010 23:44:03 12.1 C 8.58 g/m*3 12.1 C 0 km/h
120 28-08-2010 23:56:03 12 C 8.53 g/m*3 12 C 0 km/h
121 29-08-2010 00:08:03 11.8 C 8.42 g/m*3 11.8 C 0 km/h
122 29-08-2010 00:20:03 11.8 C 8.42 g/m*3 11.8 C 0 km/h
123 29-08-2010 00:32:03 11.9 C 8.58 g/m*3 11.9 C 0 km/h
124 29-08-2010 00:44:03 12 C 8.53 g/m*3 12 C 0 km/h
125 29-08-2010 00:56:03 12 C 8.42 g/m*3 12 C 0 km/h
Sensor: Nr:Datum:Temp:Abs-Feuchte:Windchill:Wind:
Aussen-T/F 126 29-08-2010 01:08:03 11.7 C 8.47 g/m*3 11.7 C 0 km/h
127 29-08-2010 01:20:03 11.5 C 8.37 g/m*3 11.5 C 0 km/h
128 29-08-2010 01:32:03 11.5 C 8.47 g/m*3 11.5 C 0 km/h
129 29-08-2010 01:44:03 11.4 C 8.42 g/m*3 11.4 C 0 km/h
130 29-08-2010 01:56:03 11.4 C 8.52 g/m*3 11.4 C 0 km/h
131 29-08-2010 02:08:03 11.7 C 8.58 g/m*3 11.7 C 0 km/h
132 29-08-2010 02:20:03 11.7 C 8.47 g/m*3 11.7 C 0 km/h
133 29-08-2010 02:32:03 11.7 C 8.58 g/m*3 11.7 C 0 km/h
134 29-08-2010 02:44:04 11.8 C 8.53 g/m*3 11.8 C 0 km/h
135 29-08-2010 02:56:04 11.8 C 8.53 g/m*3 11.8 C 0 km/h
136 29-08-2010 03:08:04 11.8 C 8.42 g/m*3 11.8 C 0 km/h
137 29-08-2010 03:20:04 11.8 C 8.53 g/m*3 11.8 C 0 km/h
138 29-08-2010 03:32:04 11.8 C 8.53 g/m*3 11.8 C 0 km/h
139 29-08-2010 03:44:04 11.7 C 8.47 g/m*3 11.7 C 0 km/h
140 29-08-2010 03:56:04 11.7 C 8.47 g/m*3 11.7 C 0 km/h
141 29-08-2010 04:08:04 11.6 C 8.42 g/m*3 11.6 C 0 km/h
142 29-08-2010 04:20:04 11.4 C 8.31 g/m*3 11.4 C 0 km/h
143 29-08-2010 04:32:04 11.4 C 8.42 g/m*3 11.4 C 0 km/h
144 29-08-2010 04:44:04 11.4 C 8.42 g/m*3 11.4 C 0 km/h
145 29-08-2010 04:56:04 11.7 C 8.37 g/m*3 11.7 C 0 km/h
146 29-08-2010 05:08:04 11.8 C 8.31 g/m*3 11.8 C 0 km/h
147 29-08-2010 05:20:04 11.7 C 8.26 g/m*3 11.7 C 0 km/h
148 29-08-2010 05:32:04 11.7 C 8.26 g/m*3 11.7 C 0 km/h
149 29-08-2010 05:44:04 11.7 C 8.37 g/m*3 11.7 C 0 km/h
150 29-08-2010 05:56:04 11.8 C 8.42 g/m*3 11.8 C 0 km/h
Sensor: Nr:Datum:Temp:Abs-Feuchte:Windchill:Wind:
Aussen-T/F 151 29-08-2010 06:08:04 12.2 C 8.31 g/m*3 12.2 C 0 km/h
152 29-08-2010 06:20:04 12.1 C 8.26 g/m*3 12.1 C 0 km/h
153 29-08-2010 06:32:04 12.2 C 8.2 g/m*3 12.2 C 0 km/h
154 29-08-2010 06:44:04 12 C 8.31 g/m*3 12 C 0 km/h
155 29-08-2010 06:56:04 12 C 8.42 g/m*3 12 C 0 km/h
156 29-08-2010 07:08:02 12.1 C 8.36 g/m*3 12.1 C 0 km/h
157 29-08-2010 07:20:02 12.2 C 8.31 g/m*3 12.2 C 0 km/h
158 29-08-2010 07:32:02 12.2 C 8.31 g/m*3 12.2 C 0 km/h
159 29-08-2010 07:44:02 12.2 C 8.31 g/m*3 12.2 C 0 km/h
160 29-08-2010 07:56:02 12.3 C 8.36 g/m*3 12.3 C 0 km/h
161 29-08-2010 08:08:02 12.1 C 8.36 g/m*3 12.1 C 0 km/h
162 29-08-2010 08:20:01 12.2 C 8.42 g/m*3 12.2 C 0 km/h
163 29-08-2010 08:32:02 12.5 C 8.36 g/m*3 12.5 C 0 km/h
164 29-08-2010 08:44:02 12.6 C 8.3 g/m*3 12.6 C 0 km/h
165 29-08-2010 08:56:01 12.8 C 8.29 g/m*3 12.8 C 0 km/h
166 29-08-2010 09:08:02 13.5 C 8.3 g/m*3 13.5 C 0 km/h
167 29-08-2010 09:20:02 13.8 C 8.1 g/m*3 13.8 C 0 km/h
168 29-08-2010 09:32:01 14 C 8.08 g/m*3 14 C 0 km/h
169 29-08-2010 09:44:01 14.3 C 8.23 g/m*3 14.3 C 0 km/h
170 29-08-2010 09:56:03 14.4 C 8.16 g/m*3 14.4 C 0 km/h
171 29-08-2010 10:08:03 14.9 C 8.28 g/m*3 14.9 C 0 km/h
172 29-08-2010 10:20:03 15.3 C 7.97 g/m*3 15.3 C 0 km/h
173 29-08-2010 10:32:02 15.3 C 7.97 g/m*3 15.3 C 0 km/h
174 29-08-2010 10:44:02 15.7 C 8.03 g/m*3 15.7 C 0 km/h
175 29-08-2010 10:56:01 15.8 C 7.94 g/m*3 15.8 C 0 km/h
Sensor: Nr:Datum:Temp:Abs-Feuchte:Windchill:Wind:
Aussen-T/F 176 29-08-2010 11:08:02 16.3 C 8.05 g/m*3 16.3 C 0 km/h
177 29-08-2010 11:20:01 16.4 C 7.96 g/m*3 16.4 C 0 km/h
178 29-08-2010 11:32:01 16.6 C 7.91 g/m*3 16.6 C 0 km/h
179 29-08-2010 11:44:01 16 C 7.77 g/m*3 16 C 0 km/h
180 29-08-2010 11:56:01 16 C 7.9 g/m*3 16 C 0 km/h
181 29-08-2010 12:08:01 15.9 C 7.85 g/m*3 15.9 C 0 km/h
182 29-08-2010 12:20:02 14 C 9.17 g/m*3 14 C 0 km/h
183 29-08-2010 12:32:01 14.6 C 9.76 g/m*3 14.6 C 0 km/h
184 29-08-2010 12:44:01 15.1 C 9.16 g/m*3 15.1 C 0 km/h
185 29-08-2010 12:56:03 16 C 9.13 g/m*3 16 C 0 km/h
186 29-08-2010 13:08:02 16.9 C 8.92 g/m*3 16.9 C 0 km/h
187 29-08-2010 13:20:02 16.9 C 8.63 g/m*3 16.9 C 0 km/h
188 29-08-2010 13:32:02 16.4 C 8.37 g/m*3 16.4 C 0 km/h
189 29-08-2010 13:44:02 15.3 C 8.62 g/m*3 15.3 C 0 km/h
190 29-08-2010 13:56:02 14.7 C 8.94 g/m*3 14.7 C 0 km/h
191 29-08-2010 14:08:01 15.2 C 8.83 g/m*3 15.2 C 0 km/h
192 29-08-2010 14:20:02 16.4 C 8.51 g/m*3 16.4 C 0 km/h
193 29-08-2010 14:32:02 17 C 7.96 g/m*3 17 C 0 km/h
194 29-08-2010 14:44:02 17.1 C 8.3 g/m*3 17.1 C 0 km/h
195 29-08-2010 14:56:01 16.6 C 8.33 g/m*3 16.6 C 0 km/h
196 29-08-2010 15:08:01 15.7 C 8.3 g/m*3 15.7 C 0 km/h
197 29-08-2010 15:20:01 15.5 C 8.2 g/m*3 15.5 C 0 km/h
198 29-08-2010 15:32:02 14.2 C 8.91 g/m*3 14.2 C 0 km/h
199 29-08-2010 15:44:02 14.7 C 9.69 g/m*3 14.7 C 0 km/h
200 29-08-2010 15:56:02 15.3 C 9.4 g/m*3 15.3 C 0 km/h
Sensor: Nr:Datum:Temp:Abs-Feuchte:Windchill:Wind:
Aussen-T/F 201 29-08-2010 16:08:02 15.1 C 9.03 g/m*3 15.1 C 0 km/h
202 29-08-2010 16:20:02 15.5 C 8.99 g/m*3 15.5 C 0 km/h
203 29-08-2010 16:32:02 15.9 C 8.53 g/m*3 15.9 C 0 km/h
204 29-08-2010 16:44:03 16.2 C 8.14 g/m*3 16.2 C 0 km/h
205 29-08-2010 16:56:02 16.1 C 7.81 g/m*3 16.1 C 0 km/h
206 29-08-2010 17:08:02 15.9 C 7.85 g/m*3 15.9 C 0 km/h
207 29-08-2010 17:20:02 15.6 C 7.98 g/m*3 15.6 C 0 km/h
208 29-08-2010 17:32:02 15.2 C 8.18 g/m*3 15.2 C 0 km/h
209 29-08-2010 17:44:02 14.1 C 8.74 g/m*3 14.1 C 0 km/h
210 29-08-2010 17:56:02 14 C 8.68 g/m*3 14 C 0 km/h
211 29-08-2010 18:08:02 13.8 C 8.94 g/m*3 13.8 C 0 km/h
212 29-08-2010 18:20:01 13.4 C 9.3 g/m*3 13.4 C 0 km/h
213 29-08-2010 18:32:01 13.1 C 9.59 g/m*3 13.1 C 0 km/h
214 29-08-2010 18:44:01 12.7 C 9.46 g/m*3 12.7 C 0 km/h
215 29-08-2010 18:56:02 12.3 C 9.23 g/m*3 12.3 C 0 km/h
216 29-08-2010 19:08:02 12.2 C 9.28 g/m*3 12.2 C 0 km/h
217 29-08-2010 19:20:01 12.2 C 9.39 g/m*3 12.2 C 0 km/h
218 29-08-2010 19:32:02 12 C 9.38 g/m*3 12 C 0 km/h
219 29-08-2010 19:44:02 11.8 C 9.26 g/m*3 11.8 C 0 km/h
220 29-08-2010 19:56:02 11.8 C 9.16 g/m*3 11.8 C 0 km/h
221 29-08-2010 20:08:02 11.8 C 8.95 g/m*3 11.8 C 0 km/h
222 29-08-2010 20:20:03 11.8 C 8.95 g/m*3 11.8 C 0 km/h
223 29-08-2010 20:32:02 11.7 C 8.89 g/m*3 11.7 C 0 km/h
224 29-08-2010 20:44:02 11.7 C 8.99 g/m*3 11.7 C 0 km/h
225 29-08-2010 20:56:01 11.9 C 9 g/m*3 11.9 C 0 km/h
Sensor: Nr:Datum:Temp:Abs-Feuchte:Windchill:Wind:
Aussen-T/F 226 29-08-2010 21:08:01 12 C 8.95 g/m*3 12 C 0 km/h
227 29-08-2010 21:20:02 12.2 C 8.96 g/m*3 12.2 C 0 km/h
228 29-08-2010 21:32:01 12.3 C 9.01 g/m*3 12.3 C 0 km/h
229 29-08-2010 21:44:01 12 C 8.95 g/m*3 12 C 0 km/h
230 29-08-2010 21:56:02 9.7 C 7.74 g/m*3 9.7 C 0 km/h
231 29-08-2010 22:09:03 9.3 C 7.82 g/m*3 9.3 C 0 km/h
232 29-08-2010 22:21:03 9.2 C 7.95 g/m*3 9.2 C 0 km/h
233 29-08-2010 22:33:03 9.2 C 8.04 g/m*3 9.2 C 0 km/h
234 29-08-2010 22:45:03 9.2 C 8.13 g/m*3 9.2 C 0 km/h
235 29-08-2010 22:57:03 9.1 C 8.16 g/m*3 9.1 C 0 km/h
236 29-08-2010 23:09:03 9 C 8.11 g/m*3 9 C 0 km/h
237 29-08-2010 23:21:03 9 C 8.11 g/m*3 9 C 0 km/h
238 29-08-2010 23:33:03 9 C 8.11 g/m*3 9 C 0 km/h
239 29-08-2010 23:45:03 9.3 C 8.27 g/m*3 9.3 C 0 km/h
240 29-08-2010 23:57:03 9.3 C 8.18 g/m*3 9.3 C 0 km/h

Legende:
   Min
   Max


Maximal/Minimal-Werte vom 28.08.2010 - 29.08.2010

Sensor Min Max Avg
Temp
(Aussen-T/F)
9 °C
29-08-2010  23:09:03
18.3 °C
28-08-2010  18:43:02
13.55 °C
Abs-Feuchte
(Aussen-T/F)
6.72 g/m*3
28-08-2010  15:43:03
11.57 g/m*3
28-08-2010  13:43:02
8.6 g/m*3
Windchill
(Aussen-T/F)
9 C
29-08-2010  23:09:03
18.3 C
28-08-2010  18:43:02
13.49 C

Die Daten stammen von einer Davis Vantage Pro 2 Wetter-Station und werden unter Linux mit der Software wview2wettercgi und aufbereitet. Alle Angaben erfolgen ohne Gewähr für ihre Vollständigkeit oder Richtigkeit.
Kontakt: Rainer Krienke krienke@uni-koblenz.de . Meine Webseiten an der Uni Koblenz oder privat.
Version: $Revision: 0.78 $